Year,Month,Day,Hour,Minute,Value (Times are PST for temperature in C)
2008,08,17,00,00,16.80
2008,08,17,00,01,16.80
2008,08,17,00,02,16.80
2008,08,17,00,03,16.80
2008,08,17,00,04,16.80
2008,08,17,00,05,16.80
2008,08,17,00,06,16.80
2008,08,17,00,07,16.90
2008,08,17,00,08,16.90
2008,08,17,00,09,16.90
2008,08,17,00,10,16.90
2008,08,17,00,11,16.90
2008,08,17,00,12,16.90
2008,08,17,00,13,16.90
2008,08,17,00,14,16.90
2008,08,17,00,15,16.90
2008,08,17,00,16,16.90
2008,08,17,00,17,16.90
2008,08,17,00,18,16.80
2008,08,17,00,19,16.80
2008,08,17,00,20,16.80
2008,08,17,00,21,16.80
2008,08,17,00,22,16.80
2008,08,17,00,23,16.80
2008,08,17,00,24,16.80
2008,08,17,00,25,16.80
2008,08,17,00,26,16.80
2008,08,17,00,27,16.80
2008,08,17,00,28,16.80
2008,08,17,00,29,16.80
2008,08,17,00,30,16.80
2008,08,17,00,31,16.80
2008,08,17,00,32,16.80
2008,08,17,00,33,16.80
2008,08,17,00,34,16.70
2008,08,17,00,35,16.70
2008,08,17,00,36,16.70
2008,08,17,00,37,16.70
2008,08,17,00,38,16.70
2008,08,17,00,39,16.70
2008,08,17,00,40,16.70
2008,08,17,00,41,16.60
2008,08,17,00,42,16.60
2008,08,17,00,43,16.60
2008,08,17,00,44,16.60
2008,08,17,00,45,16.60
2008,08,17,00,46,16.50
2008,08,17,00,47,16.50
2008,08,17,00,48,16.50
2008,08,17,00,49,16.50
2008,08,17,00,50,16.40
2008,08,17,00,51,16.40
2008,08,17,00,52,16.40
2008,08,17,00,53,16.40
2008,08,17,00,54,16.40
2008,08,17,00,55,16.40
2008,08,17,00,56,16.30
2008,08,17,00,57,16.30
2008,08,17,00,58,16.30
2008,08,17,00,59,16.30
2008,08,17,01,00,16.30
2008,08,17,01,01,16.30
2008,08,17,01,02,16.30
2008,08,17,01,03,16.20
2008,08,17,01,04,16.20
2008,08,17,01,05,16.20
2008,08,17,01,06,16.20
2008,08,17,01,07,16.20
2008,08,17,01,08,16.20
2008,08,17,01,09,16.20
2008,08,17,01,10,16.10
2008,08,17,01,11,16.10
2008,08,17,01,12,16.10
2008,08,17,01,13,16.10
2008,08,17,01,14,16.10
2008,08,17,01,15,16.10
2008,08,17,01,16,16.10
2008,08,17,01,17,16.10
2008,08,17,01,18,16.10
2008,08,17,01,19,16.10
2008,08,17,01,20,16.10
2008,08,17,01,21,16.00
2008,08,17,01,22,16.00
2008,08,17,01,23,16.10
2008,08,17,01,24,16.10
2008,08,17,01,25,16.10
2008,08,17,01,26,16.10
2008,08,17,01,27,16.10
2008,08,17,01,28,16.10
2008,08,17,01,29,16.10
2008,08,17,01,30,16.10
2008,08,17,01,31,16.10
2008,08,17,01,32,16.20
2008,08,17,01,33,16.20
2008,08,17,01,34,16.20
2008,08,17,01,35,16.20
2008,08,17,01,36,16.20
2008,08,17,01,37,16.20
2008,08,17,01,38,16.20
2008,08,17,01,39,16.20
2008,08,17,01,40,16.20
2008,08,17,01,41,16.20
2008,08,17,01,42,16.20
2008,08,17,01,43,16.20
2008,08,17,01,44,16.20
2008,08,17,01,45,16.20
2008,08,17,01,46,16.20
2008,08,17,01,47,16.20
2008,08,17,01,48,16.10
2008,08,17,01,49,16.10
2008,08,17,01,50,16.10
2008,08,17,01,51,16.10
2008,08,17,01,52,16.10
2008,08,17,01,53,16.10
2008,08,17,01,54,16.10
2008,08,17,01,55,16.10
2008,08,17,01,56,16.10
2008,08,17,01,57,16.10
2008,08,17,01,58,16.10
2008,08,17,01,59,16.10
2008,08,17,02,00,16.10
2008,08,17,02,01,16.10
2008,08,17,02,02,16.10
2008,08,17,02,03,16.10
2008,08,17,02,04,16.10
2008,08,17,02,05,16.20
2008,08,17,02,06,16.20
2008,08,17,02,07,16.20
2008,08,17,02,08,16.20
2008,08,17,02,09,16.20
2008,08,17,02,10,16.20
2008,08,17,02,11,16.20
2008,08,17,02,12,16.20
2008,08,17,02,13,16.30
2008,08,17,02,14,16.30
2008,08,17,02,15,16.30
2008,08,17,02,16,16.30
2008,08,17,02,17,16.30
2008,08,17,02,18,16.30
2008,08,17,02,19,16.30
2008,08,17,02,20,16.30
2008,08,17,02,21,16.30
2008,08,17,02,22,16.30
2008,08,17,02,23,16.30
2008,08,17,02,24,16.30
2008,08,17,02,25,16.20
2008,08,17,02,26,16.20
2008,08,17,02,27,16.20
2008,08,17,02,28,16.20
2008,08,17,02,29,16.10
2008,08,17,02,30,16.10
2008,08,17,02,31,16.10
2008,08,17,02,32,16.10
2008,08,17,02,33,16.10
2008,08,17,02,34,16.10
2008,08,17,02,35,16.10
2008,08,17,02,36,16.10
2008,08,17,02,37,16.10
2008,08,17,02,38,16.10
2008,08,17,02,39,16.10
2008,08,17,02,40,16.10
2008,08,17,02,41,16.10
2008,08,17,02,42,16.10
2008,08,17,02,43,16.10
2008,08,17,02,44,16.10
2008,08,17,02,45,16.10
2008,08,17,02,46,16.20
2008,08,17,02,47,16.20
2008,08,17,02,48,16.20
2008,08,17,02,49,16.20
2008,08,17,02,50,16.20
2008,08,17,02,51,16.30
2008,08,17,02,52,16.30
2008,08,17,02,53,16.30
2008,08,17,02,54,16.30
2008,08,17,02,55,16.30
2008,08,17,02,56,16.30
2008,08,17,02,57,16.30
2008,08,17,02,58,16.30
2008,08,17,02,59,16.30
2008,08,17,03,00,16.30
2008,08,17,03,01,16.30
2008,08,17,03,02,16.30
2008,08,17,03,03,16.30
2008,08,17,03,04,16.30
2008,08,17,03,05,16.30
2008,08,17,03,06,16.30
2008,08,17,03,07,16.30
2008,08,17,03,08,16.30
2008,08,17,03,09,16.30
2008,08,17,03,10,16.30
2008,08,17,03,11,16.30
2008,08,17,03,12,16.30
2008,08,17,03,13,16.30
2008,08,17,03,14,16.30
2008,08,17,03,15,16.30
2008,08,17,03,16,16.30
2008,08,17,03,17,16.30
2008,08,17,03,18,16.30
2008,08,17,03,19,16.30
2008,08,17,03,20,16.30
2008,08,17,03,21,16.30
2008,08,17,03,22,16.30
2008,08,17,03,23,16.30
2008,08,17,03,24,16.30
2008,08,17,03,25,16.30
2008,08,17,03,26,16.30
2008,08,17,03,27,16.30
2008,08,17,03,28,16.20
2008,08,17,03,29,16.20
2008,08,17,03,30,16.20
2008,08,17,03,31,16.20
2008,08,17,03,32,16.20
2008,08,17,03,33,16.20
2008,08,17,03,34,16.20
2008,08,17,03,35,16.20
2008,08,17,03,36,16.20
2008,08,17,03,37,16.20
2008,08,17,03,38,16.20
2008,08,17,03,39,16.20
2008,08,17,03,40,16.20
2008,08,17,03,41,16.10
2008,08,17,03,42,16.10
2008,08,17,03,43,16.10
2008,08,17,03,44,16.10
2008,08,17,03,45,16.10
2008,08,17,03,46,16.20
2008,08,17,03,47,16.20
2008,08,17,03,48,16.20
2008,08,17,03,49,16.20
2008,08,17,03,50,16.20
2008,08,17,03,51,16.20
2008,08,17,03,52,16.20
2008,08,17,03,53,16.20
2008,08,17,03,54,16.20
2008,08,17,03,55,16.20
2008,08,17,03,56,16.20
2008,08,17,03,57,16.20
2008,08,17,03,58,16.20
2008,08,17,03,59,16.20
2008,08,17,04,00,16.20
2008,08,17,04,01,16.20
2008,08,17,04,02,16.20
2008,08,17,04,03,16.20
2008,08,17,04,04,16.20
2008,08,17,04,05,16.20
2008,08,17,04,06,16.20
2008,08,17,04,07,16.20
2008,08,17,04,08,16.20
2008,08,17,04,09,16.10
2008,08,17,04,10,16.10
2008,08,17,04,11,16.10
2008,08,17,04,12,16.10
2008,08,17,04,13,16.10
2008,08,17,04,14,16.10
2008,08,17,04,15,16.10
2008,08,17,04,16,16.10
2008,08,17,04,17,16.00
2008,08,17,04,18,16.00
2008,08,17,04,19,16.00
2008,08,17,04,20,16.00
2008,08,17,04,21,16.00
2008,08,17,04,22,16.00
2008,08,17,04,23,16.00
2008,08,17,04,24,16.00
2008,08,17,04,25,16.00
2008,08,17,04,26,16.00
2008,08,17,04,27,16.10
2008,08,17,04,28,16.10
2008,08,17,04,29,16.10
2008,08,17,04,30,16.10
2008,08,17,04,31,16.10
2008,08,17,04,32,16.10
2008,08,17,04,33,16.10
2008,08,17,04,34,16.10
2008,08,17,04,35,16.10
2008,08,17,04,36,16.10
2008,08,17,04,37,16.10
2008,08,17,04,38,16.10
2008,08,17,04,39,16.10
2008,08,17,04,40,16.10
2008,08,17,04,41,16.10
2008,08,17,04,42,16.10
2008,08,17,04,43,16.10
2008,08,17,04,44,16.10
2008,08,17,04,45,16.10
2008,08,17,04,46,16.10
2008,08,17,04,47,16.10
2008,08,17,04,48,16.10
2008,08,17,04,49,16.10
2008,08,17,04,50,16.10
2008,08,17,04,51,16.10
2008,08,17,04,52,16.10
2008,08,17,04,53,16.20
2008,08,17,04,54,16.20
2008,08,17,04,55,16.20
2008,08,17,04,56,16.20
2008,08,17,04,57,16.20
2008,08,17,04,58,16.20
2008,08,17,04,59,16.30
2008,08,17,05,00,16.30
2008,08,17,05,01,16.30
2008,08,17,05,02,16.30
2008,08,17,05,03,16.30
2008,08,17,05,04,16.30
2008,08,17,05,05,16.30
2008,08,17,05,06,16.30
2008,08,17,05,07,16.30
2008,08,17,05,08,16.30
2008,08,17,05,09,16.30
2008,08,17,05,10,16.30
2008,08,17,05,11,16.30
2008,08,17,05,12,16.30
2008,08,17,05,13,16.30
2008,08,17,05,14,16.20
2008,08,17,05,15,16.20
2008,08,17,05,16,16.20
2008,08,17,05,17,16.10
2008,08,17,05,18,16.10
2008,08,17,05,19,16.00
2008,08,17,05,20,16.00
2008,08,17,05,21,15.90
2008,08,17,05,22,15.90
2008,08,17,05,23,15.90
2008,08,17,05,24,15.90
2008,08,17,05,25,15.90
2008,08,17,05,26,15.90
2008,08,17,05,27,15.90
2008,08,17,05,28,15.80
2008,08,17,05,29,15.80
2008,08,17,05,30,15.80
2008,08,17,05,31,15.80
2008,08,17,05,32,15.80
2008,08,17,05,33,15.80
2008,08,17,05,34,15.80
2008,08,17,05,35,15.80
2008,08,17,05,36,15.80
2008,08,17,05,37,15.80
2008,08,17,05,38,15.90
2008,08,17,05,39,15.90
2008,08,17,05,40,15.90
2008,08,17,05,41,15.90
2008,08,17,05,42,15.90
2008,08,17,05,43,15.90
2008,08,17,05,44,15.90
2008,08,17,05,45,16.00
2008,08,17,05,46,16.00
2008,08,17,05,47,16.00
2008,08,17,05,48,16.00
2008,08,17,05,49,16.00
2008,08,17,05,50,16.00
2008,08,17,05,51,16.00
2008,08,17,05,52,16.00
2008,08,17,05,53,16.00
2008,08,17,05,54,16.10
2008,08,17,05,55,16.10
2008,08,17,05,56,16.10
2008,08,17,05,57,16.10
2008,08,17,05,58,16.10
2008,08,17,05,59,16.10
2008,08,17,06,00,16.10
2008,08,17,06,01,16.10
2008,08,17,06,02,15.90
2008,08,17,06,03,15.70
2008,08,17,06,04,15.50
2008,08,17,06,05,15.10
2008,08,17,06,06,15.00
2008,08,17,06,07,14.80
2008,08,17,06,08,14.60
2008,08,17,06,09,14.40
2008,08,17,06,10,14.30
2008,08,17,06,11,14.20
2008,08,17,06,12,14.10
2008,08,17,06,13,14.10
2008,08,17,06,14,14.00
2008,08,17,06,15,13.90
2008,08,17,06,16,13.90
2008,08,17,06,17,13.80
2008,08,17,06,18,13.70
2008,08,17,06,19,13.70
2008,08,17,06,20,13.60
2008,08,17,06,21,13.50
2008,08,17,06,22,13.50
2008,08,17,06,23,13.40
2008,08,17,06,24,13.30
2008,08,17,06,25,13.30
2008,08,17,06,26,13.20
2008,08,17,06,27,13.20
2008,08,17,06,28,13.10
2008,08,17,06,29,13.00
2008,08,17,06,30,12.90
2008,08,17,06,31,12.80
2008,08,17,06,32,12.80
2008,08,17,06,33,12.70
2008,08,17,06,34,12.60
2008,08,17,06,35,12.60
2008,08,17,06,36,12.60
2008,08,17,06,37,12.50
2008,08,17,06,38,12.50
2008,08,17,06,39,12.50
2008,08,17,06,40,12.50
2008,08,17,06,41,12.50
2008,08,17,06,42,12.50
2008,08,17,06,43,12.50
2008,08,17,06,44,12.50
2008,08,17,06,45,12.60
2008,08,17,06,46,12.60
2008,08,17,06,47,12.60
2008,08,17,06,48,12.70
2008,08,17,06,49,12.70
2008,08,17,06,50,12.80
2008,08,17,06,51,12.80
2008,08,17,06,52,12.80
2008,08,17,06,53,12.80
2008,08,17,06,54,12.80
2008,08,17,06,55,12.80
2008,08,17,06,56,12.80
2008,08,17,06,57,12.80
2008,08,17,06,58,12.80
2008,08,17,06,59,12.80
2008,08,17,07,00,12.80
2008,08,17,07,01,12.80
2008,08,17,07,02,12.80
2008,08,17,07,03,12.80
2008,08,17,07,04,12.80
2008,08,17,07,05,12.80
2008,08,17,07,06,12.90
2008,08,17,07,07,12.90
2008,08,17,07,08,12.90
2008,08,17,07,09,13.00
2008,08,17,07,10,13.00
2008,08,17,07,11,13.10
2008,08,17,07,12,13.10
2008,08,17,07,13,13.10
2008,08,17,07,14,13.20
2008,08,17,07,15,13.20
2008,08,17,07,16,13.20
2008,08,17,07,17,13.30
2008,08,17,07,18,13.30
2008,08,17,07,19,13.30
2008,08,17,07,20,13.40
2008,08,17,07,21,13.50
2008,08,17,07,22,13.50
2008,08,17,07,23,13.60
2008,08,17,07,24,13.70
2008,08,17,07,25,13.70
2008,08,17,07,26,13.80
2008,08,17,07,27,13.80
2008,08,17,07,28,13.80
2008,08,17,07,29,13.90
2008,08,17,07,30,13.90
2008,08,17,07,31,13.90
2008,08,17,07,32,13.90
2008,08,17,07,33,14.00
2008,08,17,07,34,14.00
2008,08,17,07,35,14.10
2008,08,17,07,36,14.10
2008,08,17,07,37,14.10
2008,08,17,07,38,14.20
2008,08,17,07,39,14.30
2008,08,17,07,40,14.30
2008,08,17,07,41,14.40
2008,08,17,07,42,14.40
2008,08,17,07,43,14.50
2008,08,17,07,44,14.50
2008,08,17,07,45,14.50
2008,08,17,07,46,14.60
2008,08,17,07,47,14.60
2008,08,17,07,48,14.60
2008,08,17,07,49,14.50
2008,08,17,07,50,14.40
2008,08,17,07,51,14.30
2008,08,17,07,52,14.30
2008,08,17,07,53,14.20
2008,08,17,07,54,14.20
2008,08,17,07,55,14.10
2008,08,17,07,56,14.10
2008,08,17,07,57,14.10
2008,08,17,07,58,14.00
2008,08,17,07,59,14.00
2008,08,17,08,00,14.00
2008,08,17,08,01,14.00
2008,08,17,08,02,14.00
2008,08,17,08,03,14.00
2008,08,17,08,04,14.00
2008,08,17,08,05,14.00
2008,08,17,08,06,14.10
2008,08,17,08,07,14.10
2008,08,17,08,08,14.10
2008,08,17,08,09,14.10
2008,08,17,08,10,14.10
2008,08,17,08,11,14.10
2008,08,17,08,12,14.20
2008,08,17,08,13,14.20
2008,08,17,08,14,14.20
2008,08,17,08,15,14.30
2008,08,17,08,16,14.40
2008,08,17,08,17,14.50
2008,08,17,08,18,14.60
2008,08,17,08,19,14.70
2008,08,17,08,20,14.80
2008,08,17,08,21,15.00
2008,08,17,08,22,15.00
2008,08,17,08,23,15.10
2008,08,17,08,24,15.30
2008,08,17,08,25,15.40
2008,08,17,08,26,15.60
2008,08,17,08,27,15.80
2008,08,17,08,28,15.90
2008,08,17,08,29,16.10
2008,08,17,08,30,16.20
2008,08,17,08,31,16.40
2008,08,17,08,32,16.60
2008,08,17,08,33,16.70
2008,08,17,08,34,16.90
2008,08,17,08,35,17.00
2008,08,17,08,36,17.20
2008,08,17,08,37,17.30
2008,08,17,08,38,17.50
2008,08,17,08,39,17.60
2008,08,17,08,40,17.70
2008,08,17,08,41,17.70
2008,08,17,08,42,17.70
2008,08,17,08,43,17.70
2008,08,17,08,44,17.70
2008,08,17,08,45,17.70
2008,08,17,08,46,17.70
2008,08,17,08,47,17.70
2008,08,17,08,48,17.70
2008,08,17,08,49,17.60
2008,08,17,08,50,17.60
2008,08,17,08,51,17.50
2008,08,17,08,52,17.40
2008,08,17,08,53,17.40
2008,08,17,08,54,17.30
2008,08,17,08,55,17.30
2008,08,17,08,56,17.30
2008,08,17,08,57,17.30
2008,08,17,08,58,17.20
2008,08,17,08,59,17.20
2008,08,17,09,00,17.20
2008,08,17,09,01,17.30
2008,08,17,09,02,17.30
2008,08,17,09,03,17.40
2008,08,17,09,04,17.50
2008,08,17,09,05,17.60
2008,08,17,09,06,17.80
2008,08,17,09,07,17.90
2008,08,17,09,08,18.00
2008,08,17,09,09,18.00
2008,08,17,09,10,18.10
2008,08,17,09,11,18.20
2008,08,17,09,12,18.20
2008,08,17,09,13,18.20
2008,08,17,09,14,18.20
2008,08,17,09,15,18.20
2008,08,17,09,16,18.30
2008,08,17,09,17,18.30
2008,08,17,09,18,18.30
2008,08,17,09,19,18.30
2008,08,17,09,20,18.40
2008,08,17,09,21,18.40
2008,08,17,09,22,18.40
2008,08,17,09,23,18.50
2008,08,17,09,24,18.60
2008,08,17,09,25,18.70
2008,08,17,09,26,18.90
2008,08,17,09,27,19.00
2008,08,17,09,28,19.10
2008,08,17,09,29,19.20
2008,08,17,09,30,19.20
2008,08,17,09,31,19.20
2008,08,17,09,32,19.30
2008,08,17,09,33,19.40
2008,08,17,09,34,19.50
2008,08,17,09,35,19.60
2008,08,17,09,36,19.80
2008,08,17,09,37,19.80
2008,08,17,09,38,19.90
2008,08,17,09,39,20.00
2008,08,17,09,40,20.10
2008,08,17,09,41,20.30
2008,08,17,09,42,20.40
2008,08,17,09,43,20.50
2008,08,17,09,44,20.60
2008,08,17,09,45,20.70
2008,08,17,09,46,20.90
2008,08,17,09,47,21.00
2008,08,17,09,48,21.00
2008,08,17,09,49,21.20
2008,08,17,09,50,21.30
2008,08,17,09,51,21.40
2008,08,17,09,52,21.50
2008,08,17,09,53,21.60
2008,08,17,09,54,21.70
2008,08,17,09,55,21.80
2008,08,17,09,56,22.00
2008,08,17,09,57,22.10
2008,08,17,09,58,22.20
2008,08,17,09,59,22.20
2008,08,17,10,00,22.30
2008,08,17,10,01,22.40
2008,08,17,10,02,22.50
2008,08,17,10,03,22.60
2008,08,17,10,04,22.70
2008,08,17,10,05,22.80
2008,08,17,10,06,23.00
2008,08,17,10,07,23.10
2008,08,17,10,08,23.10
2008,08,17,10,09,23.20
2008,08,17,10,10,23.20
2008,08,17,10,11,23.20
2008,08,17,10,12,23.30
2008,08,17,10,13,23.40
2008,08,17,10,14,23.40
2008,08,17,10,15,23.40
2008,08,17,10,16,23.40
2008,08,17,10,17,23.40
2008,08,17,10,18,23.50
2008,08,17,10,19,23.60
2008,08,17,10,20,23.70
2008,08,17,10,21,23.80
2008,08,17,10,22,23.90
2008,08,17,10,23,24.10
2008,08,17,10,24,24.10
2008,08,17,10,25,24.10
2008,08,17,10,26,24.00
2008,08,17,10,27,23.90
2008,08,17,10,28,23.80
2008,08,17,10,29,23.80
2008,08,17,10,30,23.80
2008,08,17,10,31,23.90
2008,08,17,10,32,23.90
2008,08,17,10,33,24.00
2008,08,17,10,34,24.00
2008,08,17,10,35,24.10
2008,08,17,10,36,24.10
2008,08,17,10,37,24.10
2008,08,17,10,38,24.20
2008,08,17,10,39,24.20
2008,08,17,10,40,24.30
2008,08,17,10,41,24.40
2008,08,17,10,42,24.50
2008,08,17,10,43,24.60
2008,08,17,10,44,24.60
2008,08,17,10,45,24.60
2008,08,17,10,46,24.70
2008,08,17,10,47,24.70
2008,08,17,10,48,24.70
2008,08,17,10,49,24.70
2008,08,17,10,50,24.70
2008,08,17,10,51,24.70
2008,08,17,10,52,24.70
2008,08,17,10,53,24.70
2008,08,17,10,54,24.60
2008,08,17,10,55,24.60
2008,08,17,10,56,24.60
2008,08,17,10,57,24.60
2008,08,17,10,58,24.70
2008,08,17,10,59,24.70
2008,08,17,11,00,24.70
2008,08,17,11,01,24.70
2008,08,17,11,02,24.70
2008,08,17,11,03,24.70
2008,08,17,11,04,24.70
2008,08,17,11,05,24.60
2008,08,17,11,06,24.40
2008,08,17,11,07,24.30
2008,08,17,11,08,24.30
2008,08,17,11,09,24.30
2008,08,17,11,10,24.20
2008,08,17,11,11,24.20
2008,08,17,11,12,24.10
2008,08,17,11,13,24.10
2008,08,17,11,14,24.00
2008,08,17,11,15,24.00
2008,08,17,11,16,24.00
2008,08,17,11,17,24.10
2008,08,17,11,18,24.10
2008,08,17,11,19,24.10
2008,08,17,11,20,24.10
2008,08,17,11,21,24.00
2008,08,17,11,22,23.80
2008,08,17,11,23,23.80
2008,08,17,11,24,23.80
2008,08,17,11,25,23.80
2008,08,17,11,26,23.80
2008,08,17,11,27,23.80
2008,08,17,11,28,23.90
2008,08,17,11,29,24.00
2008,08,17,11,30,24.00
2008,08,17,11,31,24.10
2008,08,17,11,32,24.00
2008,08,17,11,33,23.80
2008,08,17,11,34,23.50
2008,08,17,11,35,23.40
2008,08,17,11,36,23.30
2008,08,17,11,37,23.20
2008,08,17,11,38,23.20
2008,08,17,11,39,23.20
2008,08,17,11,40,23.20
2008,08,17,11,41,23.20
2008,08,17,11,42,23.10
2008,08,17,11,43,23.10
2008,08,17,11,44,23.10
2008,08,17,11,45,23.20
2008,08,17,11,46,23.10
2008,08,17,11,47,23.00
2008,08,17,11,48,22.90
2008,08,17,11,49,22.70
2008,08,17,11,50,22.70
2008,08,17,11,51,22.70
2008,08,17,11,52,22.80
2008,08,17,11,53,22.80
2008,08,17,11,54,22.80
2008,08,17,11,55,22.90
2008,08,17,11,56,22.80
2008,08,17,11,57,22.80
2008,08,17,11,58,22.70
2008,08,17,11,59,22.70
2008,08,17,12,00,22.70
2008,08,17,12,01,22.80
2008,08,17,12,02,22.80
2008,08,17,12,03,22.90
2008,08,17,12,04,22.90
2008,08,17,12,05,22.90
2008,08,17,12,06,23.00
2008,08,17,12,07,23.10
2008,08,17,12,08,23.20
2008,08,17,12,09,23.30
2008,08,17,12,10,23.30
2008,08,17,12,11,23.40
2008,08,17,12,12,23.50
2008,08,17,12,13,23.60
2008,08,17,12,14,23.60
2008,08,17,12,15,23.70
2008,08,17,12,16,23.70
2008,08,17,12,17,23.80
2008,08,17,12,18,23.90
2008,08,17,12,19,24.10
2008,08,17,12,20,24.10
2008,08,17,12,21,24.30
2008,08,17,12,22,24.40
2008,08,17,12,23,24.40
2008,08,17,12,24,24.50
2008,08,17,12,25,24.60
2008,08,17,12,26,24.70
2008,08,17,12,27,24.70
2008,08,17,12,28,24.80
2008,08,17,12,29,24.90
2008,08,17,12,30,24.90
2008,08,17,12,31,24.90
2008,08,17,12,32,25.00
2008,08,17,12,33,25.00
2008,08,17,12,34,25.10
2008,08,17,12,35,25.20
2008,08,17,12,36,25.20
2008,08,17,12,37,25.30
2008,08,17,12,38,25.40
2008,08,17,12,39,25.50
2008,08,17,12,40,25.50
2008,08,17,12,41,25.50
2008,08,17,12,42,25.40
2008,08,17,12,43,25.40
2008,08,17,12,44,25.50
2008,08,17,12,45,25.60
2008,08,17,12,46,25.60
2008,08,17,12,47,25.70
2008,08,17,12,48,25.70
2008,08,17,12,49,25.70
2008,08,17,12,50,25.70
2008,08,17,12,51,25.70
2008,08,17,12,52,25.80
2008,08,17,12,53,25.80
2008,08,17,12,54,25.70
2008,08,17,12,55,25.80
2008,08,17,12,56,25.80
2008,08,17,12,57,25.90
2008,08,17,12,58,25.90
2008,08,17,12,59,26.00
2008,08,17,13,00,26.00
2008,08,17,13,01,26.10
2008,08,17,13,02,26.20
2008,08,17,13,03,26.20
2008,08,17,13,04,26.20
2008,08,17,13,05,26.20
2008,08,17,13,06,26.20
2008,08,17,13,07,26.00
2008,08,17,13,08,26.00
2008,08,17,13,09,25.90
2008,08,17,13,10,25.90
2008,08,17,13,11,25.90
2008,08,17,13,12,25.90
2008,08,17,13,13,25.90
2008,08,17,13,14,25.90
2008,08,17,13,15,25.90
2008,08,17,13,16,25.70
2008,08,17,13,17,25.60
2008,08,17,13,18,25.50
2008,08,17,13,19,25.40
2008,08,17,13,20,25.30
2008,08,17,13,21,25.30
2008,08,17,13,22,25.20
2008,08,17,13,23,25.10
2008,08,17,13,24,25.00
2008,08,17,13,25,24.80
2008,08,17,13,26,24.70
2008,08,17,13,27,24.60
2008,08,17,13,28,24.50
2008,08,17,13,29,24.40
2008,08,17,13,30,24.30
2008,08,17,13,31,24.30
2008,08,17,13,32,24.30
2008,08,17,13,33,24.20
2008,08,17,13,34,24.20
2008,08,17,13,35,24.00
2008,08,17,13,36,23.90
2008,08,17,13,37,23.80
2008,08,17,13,38,23.60
2008,08,17,13,39,23.50
2008,08,17,13,40,23.40
2008,08,17,13,41,23.40
2008,08,17,13,42,23.30
2008,08,17,13,43,23.30
2008,08,17,13,44,23.20
2008,08,17,13,45,23.20
2008,08,17,13,46,23.10
2008,08,17,13,47,23.00
2008,08,17,13,48,23.00
2008,08,17,13,49,22.90
2008,08,17,13,50,22.80
2008,08,17,13,51,22.80
2008,08,17,13,52,22.80
2008,08,17,13,53,22.80
2008,08,17,13,54,22.80
2008,08,17,13,55,22.80
2008,08,17,13,56,22.80
2008,08,17,13,57,22.80
2008,08,17,13,58,22.80
2008,08,17,13,59,22.70
2008,08,17,14,00,22.70
2008,08,17,14,01,22.70
2008,08,17,14,02,22.60
2008,08,17,14,03,22.60
2008,08,17,14,04,22.60
2008,08,17,14,05,22.60
2008,08,17,14,06,22.70
2008,08,17,14,07,22.70
2008,08,17,14,08,22.70
2008,08,17,14,09,22.80
2008,08,17,14,10,22.90
2008,08,17,14,11,23.00
2008,08,17,14,12,23.10
2008,08,17,14,13,23.20
2008,08,17,14,14,23.30
2008,08,17,14,15,23.40
2008,08,17,14,16,23.50
2008,08,17,14,17,23.60
2008,08,17,14,18,23.70
2008,08,17,14,19,23.70
2008,08,17,14,20,23.80
2008,08,17,14,21,23.90
2008,08,17,14,22,24.00
2008,08,17,14,23,24.10
2008,08,17,14,24,24.10
2008,08,17,14,25,24.20
2008,08,17,14,26,24.20
2008,08,17,14,27,24.20
2008,08,17,14,28,24.30
2008,08,17,14,29,24.30
2008,08,17,14,30,24.40
2008,08,17,14,31,24.50
2008,08,17,14,32,24.60
2008,08,17,14,33,24.80
2008,08,17,14,34,24.90
2008,08,17,14,35,25.00
2008,08,17,14,36,25.10
2008,08,17,14,37,25.10
2008,08,17,14,38,25.10
2008,08,17,14,39,25.10
2008,08,17,14,40,25.20
2008,08,17,14,41,25.10
2008,08,17,14,42,25.00
2008,08,17,14,43,24.90
2008,08,17,14,44,24.90
2008,08,17,14,45,24.90
2008,08,17,14,46,25.00
2008,08,17,14,47,25.00
2008,08,17,14,48,25.10
2008,08,17,14,49,25.10
2008,08,17,14,50,25.00
2008,08,17,14,51,25.10
2008,08,17,14,52,25.10
2008,08,17,14,53,25.00
2008,08,17,14,54,24.90
2008,08,17,14,55,24.80
2008,08,17,14,56,24.70
2008,08,17,14,57,24.60
2008,08,17,14,58,24.60
2008,08,17,14,59,24.60
2008,08,17,15,00,24.60
2008,08,17,15,01,24.60
2008,08,17,15,02,24.60
2008,08,17,15,03,24.60
2008,08,17,15,04,24.70
2008,08,17,15,05,24.70
2008,08,17,15,06,24.70
2008,08,17,15,07,24.70
2008,08,17,15,08,24.80
2008,08,17,15,09,24.80
2008,08,17,15,10,24.90
2008,08,17,15,11,24.80
2008,08,17,15,12,24.80
2008,08,17,15,13,24.70
2008,08,17,15,14,24.70
2008,08,17,15,15,24.70
2008,08,17,15,16,24.60
2008,08,17,15,17,24.60
2008,08,17,15,18,24.60
2008,08,17,15,19,24.50
2008,08,17,15,20,24.40
2008,08,17,15,21,24.30
2008,08,17,15,22,24.30
2008,08,17,15,23,24.30
2008,08,17,15,24,24.30
2008,08,17,15,25,24.20
2008,08,17,15,26,24.10
2008,08,17,15,27,24.00
2008,08,17,15,28,23.80
2008,08,17,15,29,23.80
2008,08,17,15,30,23.70
2008,08,17,15,31,23.70
2008,08,17,15,32,23.70
2008,08,17,15,33,23.70
2008,08,17,15,34,23.70
2008,08,17,15,35,23.60
2008,08,17,15,36,23.60
2008,08,17,15,37,23.50
2008,08,17,15,38,23.40
2008,08,17,15,39,23.40
2008,08,17,15,40,23.40
2008,08,17,15,41,23.40
2008,08,17,15,42,23.20
2008,08,17,15,43,23.10
2008,08,17,15,44,23.00
2008,08,17,15,45,22.90
2008,08,17,15,46,22.90
2008,08,17,15,47,22.90
2008,08,17,15,48,22.90
2008,08,17,15,49,22.90
2008,08,17,15,50,22.90
2008,08,17,15,51,23.00
2008,08,17,15,52,23.00
2008,08,17,15,53,23.10
2008,08,17,15,54,23.10
2008,08,17,15,55,23.10
2008,08,17,15,56,23.10
2008,08,17,15,57,23.10
2008,08,17,15,58,23.10
2008,08,17,15,59,23.20
2008,08,17,16,00,23.20
2008,08,17,16,01,23.30
2008,08,17,16,02,23.30
2008,08,17,16,03,23.40
2008,08,17,16,04,23.40
2008,08,17,16,05,23.50
2008,08,17,16,06,23.50
2008,08,17,16,07,23.60
2008,08,17,16,08,23.70
2008,08,17,16,09,23.70
2008,08,17,16,10,23.70
2008,08,17,16,11,23.80
2008,08,17,16,12,23.80
2008,08,17,16,13,23.80
2008,08,17,16,14,23.80
2008,08,17,16,15,23.80
2008,08,17,16,16,23.80
2008,08,17,16,17,23.80
2008,08,17,16,18,23.80
2008,08,17,16,19,23.80
2008,08,17,16,20,23.90
2008,08,17,16,21,23.90
2008,08,17,16,22,23.90
2008,08,17,16,23,23.90
2008,08,17,16,24,23.90
2008,08,17,16,25,23.90
2008,08,17,16,26,23.90
2008,08,17,16,27,23.90
2008,08,17,16,28,23.90
2008,08,17,16,29,23.90
2008,08,17,16,30,23.90
2008,08,17,16,31,24.00
2008,08,17,16,32,24.00
2008,08,17,16,33,24.00
2008,08,17,16,34,24.00
2008,08,17,16,35,24.10
2008,08,17,16,36,24.10
2008,08,17,16,37,24.10
2008,08,17,16,38,24.10
2008,08,17,16,39,24.10
2008,08,17,16,40,24.10
2008,08,17,16,41,24.10
2008,08,17,16,42,24.10
2008,08,17,16,43,24.10
2008,08,17,16,44,24.10
2008,08,17,16,45,24.00
2008,08,17,16,46,24.00
2008,08,17,16,47,24.00
2008,08,17,16,48,24.00
2008,08,17,16,49,23.90
2008,08,17,16,50,24.00
2008,08,17,16,51,24.00
2008,08,17,16,52,24.00
2008,08,17,16,53,24.00
2008,08,17,16,54,24.10
2008,08,17,16,55,24.10
2008,08,17,16,56,24.10
2008,08,17,16,57,24.10
2008,08,17,16,58,24.20
2008,08,17,16,59,24.20
2008,08,17,17,00,24.20
2008,08,17,17,01,24.20
2008,08,17,17,02,24.20
2008,08,17,17,03,24.10
2008,08,17,17,04,24.10
2008,08,17,17,05,24.00
2008,08,17,17,06,24.00
2008,08,17,17,07,23.90
2008,08,17,17,08,23.80
2008,08,17,17,09,23.70
2008,08,17,17,10,23.60
2008,08,17,17,11,23.60
2008,08,17,17,12,23.50
2008,08,17,17,13,23.50
2008,08,17,17,14,23.40
2008,08,17,17,15,23.40
2008,08,17,17,16,23.40
2008,08,17,17,17,23.40
2008,08,17,17,18,23.40
2008,08,17,17,19,23.40